When you browse on this site, cookies collect data to enhance your experience and personalize the content and advertising you see.
Visit our Privacy Policy to learn more. By continuing to use the site, you agree to this use of cookies and data.
  • In Schweiz
  • Länderverzeichnis
  • Für 7 Tage
  • Wassertemperatur
  • Satellitenkarten
  • Wetterkarte
  • Widgets
  • user-avatar
    Anmelden

    Stündliche Wetter Valuevo

    Heute, 20 Juni, Donnerstag

    Zeit Temperatur Niederschläge Wind Luftdruck Luftfeuchtigkeit
    00:00 +18°C° 0 mm 1 m/S 748 mmHg 79%
    01:00 +16°C° 0 mm 1 m/S 748 mmHg 80%
    02:00 +16°C° 0 mm 1 m/S 748 mmHg 82%
    03:00 +18°C° 0 mm 1 m/S 749 mmHg 82%
    04:00 +19°C° 0 mm 1 m/S 749 mmHg 82%
    05:00 +19°C° 0 mm 1 m/S 749 mmHg 81%
    06:00 +19°C° 0 mm 0 m/S 749 mmHg 77%
    07:00 +21°C° 0 mm 0 m/S 749 mmHg 72%
    08:00 +22°C° 0 mm 0 m/S 749 mmHg 67%
    09:00 +23°C° 0 mm 0 m/S 749 mmHg 62%
    10:00 +24°C° 0 mm 0 m/S 749 mmHg 56%
    11:00 +26°C° 0 mm 0 m/S 749 mmHg 51%
    12:00 +28°C° 0 mm 1 m/S 749 mmHg 50%
    13:00 +28°C° 0 mm 1 m/S 749 mmHg 49%
    14:00 +28°C° 0 mm 1 m/S 749 mmHg 47%
    15:00 +28°C° 0 mm 1 m/S 748 mmHg 52%
    16:00 +28°C° 0 mm 1 m/S 748 mmHg 57%
    17:00 +28°C° 0 mm 1 m/S 748 mmHg 62%
    18:00 +26°C° 0 mm 1 m/S 748 mmHg 66%
    19:00 +24°C° 0 mm 1 m/S 748 mmHg 69%
    20:00 +22°C° 0 mm 1 m/S 748 mmHg 72%
    21:00 +21°C° 0 mm 1 m/S 748 mmHg 74%
    22:00 +20°C° 0 mm 1 m/S 749 mmHg 75%
    23:00 +20°C° 0 mm 1 m/S 749 mmHg 76%

    Morgen, 21 Juni, Freitag

    Zeit Temperatur Niederschläge Wind Luftdruck Luftfeuchtigkeit
    00:00 +19°C° 0 mm 1 m/S 749 mmHg 78%
    01:00 +19°C° 0 mm 1 m/S 749 mmHg 80%
    02:00 +18°C° 0 mm 1 m/S 749 mmHg 81%
    03:00 +19°C° 0 mm 1 m/S 749 mmHg 82%
    04:00 +19°C° 0 mm 1 m/S 749 mmHg 83%
    05:00 +20°C° 0 mm 1 m/S 749 mmHg 84%
    06:00 +21°C° 0 mm 2 m/S 750 mmHg 79%
    07:00 +23°C° 0 mm 2 m/S 750 mmHg 75%
    08:00 +25°C° 0 mm 2 m/S 750 mmHg 70%
    09:00 +26°C° 0 mm 3 m/S 750 mmHg 66%
    10:00 +27°C° 0 mm 3 m/S 750 mmHg 62%
    11:00 +27°C° 0 mm 3 m/S 750 mmHg 58%
    12:00 +28°C° 0 mm 3 m/S 749 mmHg 58%
    13:00 +28°C° 0 mm 3 m/S 749 mmHg 58%
    14:00 +28°C° 0 mm 3 m/S 749 mmHg 58%
    15:00 +28°C° 0.1 mm 3 m/S 749 mmHg 62%
    16:00 +27°C° 0.1 mm 3 m/S 749 mmHg 67%
    17:00 +27°C° 0.1 mm 3 m/S 749 mmHg 72%
    18:00 +26°C° 0.1 mm 3 m/S 748 mmHg 76%
    19:00 +24°C° 0.1 mm 2 m/S 748 mmHg 79%
    20:00 +21°C° 0.1 mm 2 m/S 748 mmHg 83%
    21:00 +21°C° 0 mm 3 m/S 749 mmHg 84%
    22:00 +20°C° 0 mm 3 m/S 749 mmHg 86%
    23:00 +20°C° 0 mm 3 m/S 749 mmHg 88%

    übermorgen, 22 Juni, Samstag

    Zeit Temperatur Niederschläge Wind Luftdruck Luftfeuchtigkeit
    00:00 +19°C° 0 mm 3 m/S 749 mmHg 89%
    01:00 +19°C° 0 mm 3 m/S 749 mmHg 90%
    02:00 +18°C° 0 mm 3 m/S 749 mmHg 90%
    03:00 +19°C° 0 mm 3 m/S 749 mmHg 90%
    04:00 +19°C° 0 mm 3 m/S 749 mmHg 90%
    05:00 +20°C° 0 mm 3 m/S 749 mmHg 89%
    06:00 +21°C° 0 mm 3 m/S 749 mmHg 85%
    07:00 +23°C° 0 mm 4 m/S 749 mmHg 80%
    08:00 +25°C° 0 mm 4 m/S 749 mmHg 76%
    09:00 +26°C° 0.1 mm 4 m/S 749 mmHg 72%
    10:00 +27°C° 0.1 mm 5 m/S 749 mmHg 67%
    11:00 +28°C° 0.1 mm 5 m/S 749 mmHg 63%
    12:00 +29°C° 0 mm 5 m/S 749 mmHg 62%
    13:00 +29°C° 0 mm 5 m/S 749 mmHg 61%
    14:00 +29°C° 0 mm 5 m/S 748 mmHg 60%
    15:00 +29°C° 0 mm 4 m/S 748 mmHg 64%
    16:00 +28°C° 0 mm 4 m/S 748 mmHg 68%
    17:00 +28°C° 0 mm 4 m/S 748 mmHg 71%
    18:00 +26°C° 0 mm 3 m/S 748 mmHg 76%
    19:00 +25°C° 0 mm 3 m/S 748 mmHg 80%
    20:00 +22°C° 0 mm 3 m/S 749 mmHg 85%
    21:00 +22°C° 0 mm 3 m/S 749 mmHg 86%
    22:00 +21°C° 0 mm 3 m/S 749 mmHg 88%
    23:00 +20°C° 0 mm 3 m/S 749 mmHg 89%

    23 Juni, Sonntag

    Zeit Temperatur Niederschläge Wind Luftdruck Luftfeuchtigkeit
    00:00 +20°C° 0 mm 3 m/S 749 mmHg 90%
    01:00 +19°C° 0 mm 2 m/S 749 mmHg 91%
    02:00 +19°C° 0 mm 2 m/S 749 mmHg 92%
    03:00 +19°C° 0 mm 2 m/S 749 mmHg 91%
    04:00 +20°C° 0 mm 2 m/S 749 mmHg 90%
    05:00 +20°C° 0 mm 2 m/S 749 mmHg 89%
    06:00 +23°C° 0.1 mm 2 m/S 749 mmHg 85%
    07:00 +24°C° 0.1 mm 2 m/S 749 mmHg 80%
    08:00 +26°C° 0.1 mm 2 m/S 749 mmHg 76%
    09:00 +27°C° 0.7 mm 2 m/S 750 mmHg 73%
    10:00 +27°C° 0.7 mm 3 m/S 750 mmHg 69%
    11:00 +28°C° 0.7 mm 3 m/S 750 mmHg 66%
    12:00 +28°C° 0.6 mm 3 m/S 750 mmHg 66%
    13:00 +28°C° 0.6 mm 3 m/S 750 mmHg 65%
    14:00 +28°C° 0.6 mm 3 m/S 750 mmHg 65%
    15:00 +28°C° 1 mm 3 m/S 750 mmHg 70%
    16:00 +27°C° 1 mm 3 m/S 750 mmHg 76%
    17:00 +26°C° 1 mm 3 m/S 750 mmHg 81%
    18:00 +24°C° 0.2 mm 3 m/S 750 mmHg 84%
    19:00 +22°C° 0.2 mm 3 m/S 750 mmHg 87%
    20:00 +20°C° 0.2 mm 3 m/S 750 mmHg 90%
    21:00 +19°C° 0 mm 3 m/S 751 mmHg 89%
    22:00 +19°C° 0 mm 3 m/S 751 mmHg 88%
    23:00 +18°C° 0 mm 3 m/S 751 mmHg 87%

    24 Juni, Montag

    Zeit Temperatur Niederschläge Wind Luftdruck Luftfeuchtigkeit
    00:00 +17°C° 0 mm 3 m/S 751 mmHg 86%
    01:00 +17°C° 0 mm 3 m/S 751 mmHg 85%
    02:00 +16°C° 0 mm 3 m/S 751 mmHg 84%
    03:00 +16°C° 0 mm 3 m/S 752 mmHg 83%
    04:00 +16°C° 0 mm 3 m/S 752 mmHg 82%
    05:00 +16°C° 0 mm 3 m/S 752 mmHg 82%
    06:00 +17°C° 0 mm 4 m/S 752 mmHg 78%
    07:00 +18°C° 0 mm 4 m/S 752 mmHg 74%
    08:00 +19°C° 0 mm 5 m/S 752 mmHg 70%
    09:00 +20°C° 0 mm 5 m/S 753 mmHg 66%
    10:00 +21°C° 0 mm 5 m/S 753 mmHg 63%
    11:00 +22°C° 0 mm 5 m/S 753 mmHg 59%
    12:00 +23°C° 0 mm 5 m/S 753 mmHg 59%
    13:00 +23°C° 0 mm 5 m/S 753 mmHg 59%
    14:00 +23°C° 0 mm 5 m/S 753 mmHg 58%
    15:00 +23°C° 0 mm 5 m/S 753 mmHg 61%
    16:00 +22°C° 0 mm 4 m/S 753 mmHg 64%
    17:00 +22°C° 0 mm 4 m/S 753 mmHg 66%
    18:00 +20°C° 0 mm 3 m/S 753 mmHg 71%
    19:00 +19°C° 0 mm 3 m/S 753 mmHg 75%
    20:00 +17°C° 0 mm 2 m/S 753 mmHg 79%
    21:00 +17°C° 0 mm 2 m/S 753 mmHg 76%
    22:00 +16°C° 0 mm 2 m/S 753 mmHg 73%
    23:00 +15°C° 0 mm 2 m/S 753 mmHg 71%

    25 Juni, Dienstag

    Zeit Temperatur Niederschläge Wind Luftdruck Luftfeuchtigkeit
    00:00 +15°C° 0 mm 2 m/S 753 mmHg 73%
    01:00 +15°C° 0 mm 2 m/S 754 mmHg 76%
    02:00 +14°C° 0 mm 2 m/S 754 mmHg 78%
    03:00 +15°C° 0 mm 2 m/S 754 mmHg 79%
    04:00 +15°C° 0 mm 2 m/S 754 mmHg 80%
    05:00 +14°C° 0 mm 3 m/S 754 mmHg 81%
    06:00 +17°C° 0 mm 3 m/S 754 mmHg 76%
    07:00 +18°C° 0 mm 3 m/S 754 mmHg 72%
    08:00 +20°C° 0 mm 3 m/S 754 mmHg 67%
    09:00 +21°C° 0 mm 3 m/S 754 mmHg 62%
    10:00 +23°C° 0 mm 2 m/S 754 mmHg 58%
    11:00 +24°C° 0 mm 2 m/S 754 mmHg 53%
    12:00 +24°C° 0 mm 2 m/S 753 mmHg 53%
    13:00 +24°C° 0 mm 2 m/S 753 mmHg 53%
    14:00 +24°C° 0 mm 2 m/S 753 mmHg 53%
    15:00 +24°C° 0 mm 2 m/S 752 mmHg 55%
    16:00 +23°C° 0 mm 2 m/S 752 mmHg 57%
    17:00 +23°C° 0 mm 1 m/S 752 mmHg 59%
    18:00 +22°C° 0 mm 1 m/S 752 mmHg 64%
    19:00 +20°C° 0 mm 1 m/S 752 mmHg 69%
    20:00 +18°C° 0 mm 1 m/S 752 mmHg 75%
    21:00 +16°C° 0 mm 1 m/S 752 mmHg 77%
    22:00 +14°C° 0 mm 0 m/S 752 mmHg 79%
    23:00 +14°C° 0 mm 0 m/S 751 mmHg 82%
    Mehr zeigen